Weather History for KRYT - October, 2013

Change the Weather History Date:

Thursday, October 3, 2013

  Actual Average (KHGR) Record (KHGR)
Temperature  
Mean Temperature 74 °F -  
Max Temperature 84 °F 66 °F 82 °F (2002)
Min Temperature 63 °F 47 °F 33 °F (2003)
Cooling Degree Days 8    
Growing Degree Days 24 (Base 50)    
Moisture  
Dew Point 60 °F    
Average Humidity 68    
Maximum Humidity 83    
Minimum Humidity 43    
Precipitation  
Precipitation 0.00 in - - ()
Sea Level Pressure  
Sea Level Pressure 30.06 in    
Wind  
Wind Speed 0 mph (West)    
Max Wind Speed 4 mph    
Max Gust Speed -    
Visibility 9 miles    
Events      
Averages and records for this station are not official NWS values.
T = Trace of Precipitation, MM = Missing Value Source: NWS Daily Summary

Daily Weather History Graph

Daily Weather History Graph

Search for Another Location

Airport or City:

Trip Planner

Search our weather history database for the weather conditions in past years. The results will help you decide how hot, cold, wet, or windy it might be!

Date:

Astronomy

Oct. 03, 2013 Rise Set
Actual Time 7:08 AM EDT 6:48 PM EDT
Civil Twilight 6:41 AM EDT 7:15 PM EDT
Nautical Twilight 6:09 AM EDT 7:46 PM EDT
Astronomical Twilight 5:38 AM EDT 8:18 PM EDT
Moon 5:39 AM EDT (10/3) 5:55 PM EDT (10/3)
Length of Visible Light 12h 34m
Length of Day
11h 40m
Waning Crescent, 2% of the Moon is Illuminated
Oct 3
Waning Crescent
Oct 4
New
Oct 11
First Quarter
Oct 18
Full
Oct 26
Last Quarter

Hourly Weather History & Observations

Time (EDT) Temp. Heat Index Dew Point Humidity Pressure Visibility Wind Dir Wind Speed Gust Speed Precip Events Conditions
12:53 AM 64.0 °F - 57.0 °F 78% 30.04 in 10.0 mi Calm Calm - N/A   Clear
1:53 AM 63.0 °F - 57.0 °F 81% 30.06 in 10.0 mi Calm Calm - N/A   Clear
2:53 AM 64.9 °F - 57.9 °F 78% 30.05 in 10.0 mi Calm Calm - N/A   Clear
3:53 AM 66.0 °F - 57.9 °F 75% 30.05 in 10.0 mi Calm Calm - N/A   Clear
4:53 AM 66.0 °F - 57.9 °F 75% 30.05 in 9.0 mi Calm Calm - N/A   Clear
5:53 AM 66.9 °F - 59.0 °F 76% 30.07 in 9.0 mi Calm Calm - N/A   Partly Cloudy
6:53 AM 64.9 °F - 57.9 °F 78% 30.08 in 9.0 mi Calm Calm - N/A   Partly Cloudy
7:53 AM 64.9 °F - 59.0 °F 81% 30.10 in 6.0 mi Calm Calm - N/A   Haze
8:11 AM 64.4 °F - 59.0 °F 83% 30.13 in 7.0 mi Calm Calm - N/A   Partly Cloudy
8:53 AM 66.9 °F - 60.1 °F 79% 30.11 in 6.0 mi Calm Calm - N/A   Haze
9:53 AM 73.0 °F - 61.0 °F 66% 30.11 in 9.0 mi Calm Calm - N/A   Clear
10:53 AM 73.9 °F - 61.0 °F 64% 30.12 in 10.0 mi Variable 3.5 mph - N/A   Clear
12:53 PM 78.1 °F - 61.0 °F 56% 30.08 in 10.0 mi Calm Calm - N/A   Clear
1:53 PM 81.0 °F 81.7 °F 61.0 °F 50% 30.05 in 10.0 mi West 3.5 mph - N/A   Scattered Clouds
2:53 PM 81.0 °F 81.6 °F 60.1 °F 49% 30.04 in 10.0 mi Variable 3.5 mph - N/A   Scattered Clouds
3:53 PM 84.0 °F 83.8 °F 59.0 °F 43% 30.02 in 10.0 mi Variable 3.5 mph - N/A   Scattered Clouds
4:53 PM 82.0 °F 82.4 °F 60.1 °F 47% 30.02 in 10.0 mi Calm Calm - N/A   Clear
5:53 PM 79.0 °F - 61.0 °F 54% 30.03 in 10.0 mi Calm Calm - N/A   Clear
6:53 PM 75.0 °F - 62.1 °F 64% 30.04 in 10.0 mi Calm Calm - N/A   Clear
7:53 PM 72.0 °F - 62.1 °F 71% 30.04 in 9.0 mi Calm Calm - N/A   Clear
8:53 PM 71.1 °F - 62.1 °F 73% 30.05 in 9.0 mi Calm Calm - N/A   Clear
9:53 PM 69.1 °F - 61.0 °F 75% 30.06 in 9.0 mi Calm Calm - N/A   Clear
10:53 PM 71.1 °F - 61.0 °F 70% 30.06 in 10.0 mi Calm Calm - N/A   Clear